SCP
0 0 0 0 0 0 0 0 0 0 0 0 0 0 0 0 0 0 0 0 0 0 0 0 0 0 0 0 0 0 0 0 0 0 0 0 0 0 0 0 0 0 0
0 0 0 0 0 0 0 0 0 0 0 0 0 0 0 0 0 0 0 0 0 0 0 0 0 0 0 0 0 0 0 0 0 0 0 0 0 0 0 0 0 0 0
0 0 0 0 0 0 0 0 0 0 0 0 0 0 0 0 0 0 0 0 0 0 0 0 0 0 0 0 0 0 0 0 0 0 0 0 0 0 0 0 0 0 0
-0 -0 -0 -0 0 0 0 0 0 0 0 0 0 0 0 0 0 0 0 0 0 0 0 0 0 0 0 0 0 0 0 0 0 0 0 0 0 0 0 0 0 0 0
-0 -0 -0 -0 -0 0 0 0 0 0 0 0 0 0 0 0 0 0 0 0 0 0 0 0 0 0 0 0 0 0 0 0 0 0 0 0 0 0 0 0 0 0 0
-0 -0 -0 -0 0 0 0 0 0 0 0 0 0 0 0 0 0 0 0 0 0 0 0 0 0 0 0 0 0 0 0 0 0 0 0 0 0 0 0 0 0 0 0
-0 -0 -0 0 0 0 0 0 0 0 0 0 0 0 0 0 0 0 0 0 0 0 0 0 0 0 0 0 0 0 0 0 0 0 0 0 0 0 0 0 0 0 0
-0 -0 -0 0 0 0 0 0 0 0 0 0 0 0 0 0 0 0 0 0 0 0 0 0 0 0 0 0 0 0 0 0 0 0 0 0 0 0 0 0 0 0 0
-0 0 0 0 0 0 0 0 0 0 0 0 0 0 0 0 0 0 0 0 0 0 0 0 0 0 0 0 0 0 0 0 0 0 0 0 0 0 0 0 0 0 0
0 0 0 0 0 0 0 0 0 0 0 0 0 0 0 0 0 0 0 0 0 0 0 0 0 0 0 0 0 0 0 0 0 0 0 0 0 0 0 0 0 0 0
0 0 0 0 0 0 0 0 0 0 0 0 0 0 0 0 0 0 0 0 0 0 0 0 0 0 0 0 0 0 0 0 0 0 0 0 0 0 0 0 0 0 0
0 0 0 0 0 0 0 0 0 0 0 0 0 0 0 0 0 0 0 0 0 0 0 0 0 0 0 0 0 0 0 0 0 0 0 0 0 0 0 0 0 0 0
0 0 0 0 0 0 0 0 0 0 0 0 0 0 0 0 0 0 0 0 0 0 0 0 0 0 0 0 0 0 0 0 0 0 0 0 0 0 0 0 0 0 0
0 0 0 0 0 0 0 0 0 0 0 0 0 0 0 0 0 0 0 0 0 0 0 0 0 0 0 0 0 0 0 0 0 0 0 0 0 0 0 0 0 0 0
0 0 0 0 0 0 0 0 0 0 0 0 0 0 0 0 0 0 0 0 0 0 0 0 0 0 0 0 0 0 0 0 0 0 0 0 0 0 0 0 0 0 0
0 0 0 0 0 0 -0 0 0 0 0 0 0 0 0 0 0 0 0 0 0 0 0 0 0 0 0 0 0 0 0 0 0 0 0 0 0 0 0 0 0 0 0
0 0 0 0 0 0 -0 0 0 0 0 0 0 0 0 0 0 0 0 0 0 0 0 0 0 0 0 0 0 0 0 0 0 0 0 0 0 0 0 0 0 0 0
0 0 0 0 0 0 0 0 0 0 0 0 0 0 0 0 0 0 0 0 0 0 0 0 0 0 0 0 0 0 0 0 0 0 0 0 0 0 0 0 0 0 0
0 0 0 0 0 0 0 0 0 0 0 0 0 0 0 0 0 0 0 0 0 0 0 0 0 0 0 0 0 0 0 0 0 0 0 0 0 0 0 0 0 0 0
0 0 0 0 0 0 0 0 0 0 0 0 0 0 0 0 0 0 0 0 0 0 0 0 0 0 0 0 0 0 0 0 0 0 0 0 0 0 0 0 0 0 0
0 0 0 0 0 0 0 0 0 0 0 0 0 0 0 0 0 0 0 0 0 0 0 0 0 0 0 0 0 0 0 0 0 0 0 0 0 0 0 0 0 0 0
0 0 0 0 0 0 0 0 0 0 0 0 0 0 0 0 0 0 0 0 0 0 0 0 0 0 0 0 0 0 0 0 0 0 0 0 0 0 0 0 0 0 0
0 0 0 0 0 0 0 0 0 0 0 0 0 0 0 0 0 0 0 0 0 0 0 0 0 0 0 0 0 0 0 0 0 0 0 0 0 0 0 0 0 0 0
0 0 0 0 0 0 0 0 0 -0 0 0 0 0 0 0 0 0 0 0 0 0 0 0 0 0 0 0 0 0 0 0 0 0 0 0 0 0 0 0 0 0 0
0 0 0 0 0 0 0 0 0 0 0 0 0 0 0 0 0 0 0 0 0 -0 0 0 0 0 0 0 0 0 0 0 0 0 0 0 0 0 0 0 0 0 0
0 0 0 0 0 0 0 0 0 0 0 0 0 0 0 0 0 0 0 0 0 0 -0 -0 0 0 0 0 0 0 0 0 0 0 0 0 0 0 0 0 0 0 0
Wind_Speed
1 2 2 2 2 2 1 1 1 2 1 2 2 2 2 2 2 2 2 4 4 5 6 7 8 8 8 8 8 9 9 9 8 9 8 8 8 8 9 9 9 10 10
1 1 2 2 2 2 2 1 2 1 1 1 2 2 2 2 2 2 2 2 4 3 4 5 7 8 8 8 9 9 9 9 9 9 9 9 8 8 9 9 10 10 10
1 1 2 2 2 2 2 1 1 1 1 1 1 1 1 2 2 2 1 1 1 2 2 3 4 5 6 7 8 9 9 9 9 9 9 9 9 9 9 10 10 10 10
2 1 2 2 3 2 2 1 1 1 1 1 1 1 1 1 1 1 1 0 0 0 1 1 2 3 5 6 6 7 9 9 9 9 9 9 9 9 9 10 10 10 9
2 2 2 2 3 2 2 2 1 0 0 1 1 0 0 1 1 0 0 0 0 0 0 0 1 2 3 4 5 6 8 9 9 9 9 9 9 9 9 10 10 10 9
2 2 2 3 3 2 2 2 1 1 0 1 0 1 1 1 1 1 1 0 0 0 0 1 1 1 3 3 4 5 7 8 9 9 9 9 9 9 10 10 10 10 10
2 2 2 3 3 2 2 3 1 1 1 1 1 2 2 2 1 1 1 1 0 1 0 1 1 1 1 2 3 3 5 7 9 9 9 9 9 9 10 10 10 11 11
2 2 2 2 2 2 3 3 2 1 1 1 1 1 1 2 2 2 1 0 1 1 0 0 1 1 1 1 2 3 4 5 7 8 9 9 9 9 9 10 10 11 11
2 2 2 2 2 2 2 2 2 1 0 1 1 2 2 1 1 2 2 1 1 1 1 0 1 1 2 1 1 2 4 4 6 8 9 10 10 10 9 10 10 10 10
2 2 2 2 2 2 2 3 2 1 1 1 1 1 1 1 1 1 2 2 2 2 2 1 1 1 1 1 1 2 3 4 4 5 7 9 10 10 10 9 9 10 10
2 2 1 2 2 2 2 3 2 2 1 1 0 0 1 1 1 2 1 1 2 2 2 2 2 1 1 1 1 2 3 4 4 3 4 6 8 9 10 9 9 10 10
2 2 1 1 2 2 2 2 2 2 1 1 1 1 1 1 1 1 2 1 1 2 2 2 2 2 1 1 1 3 4 4 4 3 3 3 4 6 8 9 9 10 11
2 2 1 1 1 2 2 1 2 2 2 2 1 1 1 0 1 1 2 1 1 1 2 2 2 2 2 1 2 3 3 3 3 3 3 3 3 4 5 6 7 8 9
3 2 1 1 2 2 1 1 1 1 2 2 2 1 1 1 1 1 2 2 2 2 2 2 2 2 2 1 2 3 2 2 3 3 2 2 2 3 3 3 4 5 6
2 2 2 1 1 1 1 1 1 2 2 2 2 2 2 2 2 1 1 1 3 2 0 1 2 2 2 1 2 2 1 2 2 2 2 2 2 2 2 2 3 3 3
2 2 2 2 1 1 0 1 1 1 2 2 1 2 2 1 2 2 1 1 1 3 2 0 1 2 2 2 3 3 2 3 2 2 2 2 2 1 1 1 1 2 3
3 3 3 2 2 1 1 0 0 0 1 1 1 1 2 1 1 2 1 1 1 2 2 0 1 2 2 3 3 2 3 2 2 2 2 2 2 1 1 0 1 2 3
3 3 3 3 2 2 2 2 1 1 1 0 0 0 1 1 2 1 1 2 1 1 2 2 1 2 2 2 2 3 3 3 2 3 3 3 2 2 1 0 1 1 2
4 3 3 4 4 3 3 3 2 2 2 2 1 1 1 1 0 1 1 1 1 1 2 2 1 1 2 2 2 3 3 3 3 4 4 4 3 2 2 1 1 1 2
4 4 4 4 4 4 3 3 3 3 2 2 2 2 2 2 2 2 1 1 1 2 2 2 1 1 1 2 2 2 2 3 3 3 4 3 4 4 4 3 2 2 2
6 5 4 4 4 4 4 5 4 4 3 2 2 2 3 4 5 3 2 2 2 2 2 2 1 1 0 1 0 0 1 1 2 2 2 2 2 2 3 4 4 3 3
5 5 5 5 5 5 7 9 7 4 4 4 3 3 3 3 4 5 5 5 5 4 3 2 2 2 1 1 1 1 1 1 1 2 2 2 2 2 2 2 3 4 4
6 6 6 6 6 7 9 9 10 6 5 5 4 3 3 3 4 2 2 3 3 4 5 4 4 3 3 3 3 1 1 1 1 1 1 1 2 2 2 2 4 4 4
6 6 7 7 6 8 11 10 10 6 5 5 5 5 4 4 4 4 3 2 1 2 3 3 4 3 3 3 3 3 3 1 1 1 0 0 2 2 2 2 3 4 5
6 6 5 7 7 8 10 11 9 4 4 5 5 5 5 5 7 8 5 4 2 2 2 4 4 3 3 4 4 3 2 2 0 1 0 1 1 2 2 2 2 5 5
7 7 6 7 8 8 10 12 11 5 5 4 4 4 8 8 8 9 6 5 5 3 2 2 1 1 1 1 4 3 3 2 1 1 0 1 0 1 2 2 2 2 3
Wind_Direction
12 357 343 338 333 329 323 315 308 303 293 274 246 229 237 246 253 256 274 296 288 263 237 224 217 210 205 203 201 197 187 181 180 174 171 167 162 154 148 143 137 135 134
34 6 352 344 337 328 312 295 290 284 278 268 264 252 250 252 246 242 253 285 293 280 249 230 223 214 207 206 206 198 190 187 181 178 174 172 169 163 158 154 148 144 142
35 20 355 340 328 322 319 311 308 301 285 276 269 264 251 241 236 237 239 243 288 276 250 238 229 216 210 211 205 198 194 190 184 181 177 176 174 171 166 163 159 156 152
32 26 2 339 329 330 333 320 312 314 315 312 295 282 262 256 246 237 215 204 216 269 264 250 230 214 210 213 207 200 195 192 186 181 179 178 177 173 170 168 166 163 161
26 30 2 338 341 347 347 330 353 283 287 308 278 267 319 298 289 279 35 183 182 130 84 247 222 207 200 203 206 205 198 192 189 186 183 181 179 176 174 173 171 169 168
16 20 7 356 360 4 356 353 344 346 307 300 13 60 23 345 360 20 355 4 270 109 138 142 143 201 201 196 200 207 201 192 189 191 188 183 180 179 177 176 174 174 175
9 17 11 3 7 8 345 341 349 8 1 8 65 37 10 13 29 18 16 17 36 70 87 122 128 135 176 187 184 197 202 198 194 192 191 184 182 180 178 179 179 180 181
1 10 18 1 359 358 358 1 10 6 2 29 92 93 29 1 357 18 29 32 10 47 72 106 128 143 142 131 173 184 191 198 196 193 194 187 184 184 185 186 187 186 186
359 11 5 358 357 6 348 343 1 36 0 355 52 129 142 203 323 1 15 16 17 26 11 32 111 144 154 148 160 180 177 185 192 196 198 193 189 190 191 193 194 193 192
346 357 357 354 356 359 350 334 14 12 85 43 2 36 109 153 129 60 359 359 20 31 17 17 42 61 108 135 159 171 173 175 184 194 199 198 197 197 196 199 201 200 199
331 336 348 352 352 349 350 355 5 22 49 91 69 47 59 56 85 132 111 353 14 17 14 18 43 42 50 82 132 155 161 161 167 176 192 199 201 200 199 203 205 206 207
314 320 336 349 336 334 341 348 3 25 32 59 58 61 108 122 139 123 126 93 44 7 12 27 40 37 46 58 79 119 140 148 157 157 159 179 198 204 205 207 209 212 214
283 292 320 317 314 317 328 352 22 24 26 48 51 36 35 56 152 132 121 121 82 18 20 25 18 24 52 53 51 80 108 132 140 152 164 183 200 198 208 216 217 222 223
251 266 271 280 303 322 344 13 33 24 39 38 43 44 37 18 36 107 141 137 105 43 32 4 353 15 29 45 49 63 78 111 134 147 159 182 191 188 191 208 220 229 234
247 245 242 261 297 321 344 29 31 25 40 39 33 42 42 19 28 39 95 135 136 128 84 336 356 354 6 49 53 64 62 85 108 125 138 153 163 177 187 206 222 226 232
242 235 234 237 260 292 324 53 31 11 48 32 33 50 41 24 28 36 59 80 117 137 145 269 342 335 354 42 55 59 48 62 75 102 114 121 141 154 163 198 237 230 231
228 227 224 222 225 233 233 180 206 58 58 26 27 52 36 38 47 40 55 73 83 115 128 63 2 356 26 38 33 42 50 49 41 65 97 120 124 122 119 137 256 245 240
227 225 216 217 224 218 206 200 211 176 158 150 351 53 7 54 53 41 55 69 77 92 129 133 28 20 30 19 33 43 36 42 34 41 68 85 99 101 96 76 275 259 255
222 217 205 216 226 221 210 207 200 204 203 206 205 199 221 127 68 44 64 70 66 76 94 123 99 36 27 17 38 36 33 20 22 38 49 52 52 54 54 28 341 294 274
212 215 214 219 223 218 210 207 198 202 211 222 218 209 207 193 197 182 146 135 113 96 94 103 97 52 34 9 51 44 25 14 8 13 20 24 31 35 30 21 4 342 308
216 215 215 221 218 212 213 203 200 200 202 218 229 224 222 215 211 198 179 172 146 129 120 117 118 87 27 40 61 31 51 355 359 4 0 5 10 12 9 6 9 3 357
218 211 213 215 217 223 219 207 195 197 201 206 220 234 240 233 228 219 207 186 173 162 163 156 163 175 210 202 169 138 116 55 346 348 17 345 8 353 338 345 1 17 30
212 213 217 212 221 231 231 222 208 193 201 210 214 217 225 215 205 193 207 191 197 197 182 168 173 196 199 200 169 159 171 170 224 293 24 338 345 327 320 349 7 34 43
209 214 217 215 220 233 230 224 213 197 204 214 213 208 210 219 204 185 172 169 200 224 205 183 186 202 202 187 173 171 168 156 302 319 125 289 324 313 323 337 6 40 42
214 213 211 209 214 232 227 219 204 183 202 218 219 213 208 215 218 191 170 180 206 256 231 187 186 194 193 175 156 125 124 115 357 316 29 167 311 319 323 333 3 23 27
218 214 217 211 212 224 226 219 202 183 200 214 217 222 220 216 216 193 179 180 198 219 181 155 151 131 115 141 162 159 160 153 166 258 258 147 332 2 337 324 334 355 8